Weather History for Wright-Patt AFB, OH

Change the Weather History Date:

Monday, November 19, 2012

  Actual Average Record
Temperature  
Mean Temperature 43 °F -  
Max Temperature 58 °F 49 °F 68 °F (1999)
Min Temperature 28 °F 32 °F 19 °F (2008)
Degree Days  
Heating Degree Days 22    
Moisture  
Dew Point 31 °F    
Average Humidity 69    
Maximum Humidity 85    
Minimum Humidity 41    
Precipitation  
Precipitation 0.00 in - - ()
Sea Level Pressure  
Sea Level Pressure 30.32 in    
Wind  
Wind Speed 0 mph (SE)    
Max Wind Speed 4 mph    
Max Gust Speed -    
Visibility 10 miles    
Events      
Averages and records for this station are not official NWS values.
T = Trace of Precipitation, MM = Missing Value Source: NWS Daily Summary

Daily Weather History Graph

Daily Weather History Graph

Search for Another Location

Airport:

Trip Planner

Search our weather history database for the weather conditions in past years. The results will help you decide how hot, cold, wet, or windy it might be!

Date:

Astronomy

Nov. 19, 2012 Rise Set
Actual Time 7:26 AM EST 5:17 PM EST
Civil Twilight 6:56 AM EST 5:46 PM EST
Nautical Twilight 6:23 AM EST 6:19 PM EST
Astronomical Twilight 5:51 AM EST 6:51 PM EST
Moon 12:28 PM EST (11/19) 11:42 PM EST (11/19)
Length of Visible Light 10h 49m
Length of Day
9h 51m
Waxing Crescent, 40% of the Moon is Illuminated
Nov 19
Waxing Crescent
Nov 20
First Quarter
Nov 28
Full
Dec 6
Last Quarter
Dec 13
New

Hourly Weather History & Observations

Time (EST) Temp. Dew Point Humidity Pressure Visibility Wind Dir Wind Speed Gust Speed Precip Events Conditions
12:55 AM 30.6 °F 26.4 °F 85% 30.40 in 10.0 mi Calm Calm - N/A   Clear
1:55 AM 29.8 °F 25.2 °F 83% 30.38 in 10.0 mi Calm Calm - N/A   Clear
2:55 AM 28.9 °F 23.5 °F 80% 30.39 in 10.0 mi Calm Calm - N/A   Clear
3:55 AM 29.1 °F 24.8 °F 84% 30.38 in 10.0 mi Calm Calm - N/A   Partly Cloudy
4:55 AM 29.8 °F 25.3 °F 83% 30.38 in 10.0 mi Calm Calm - N/A   Scattered Clouds
5:55 AM 29.7 °F 25.3 °F 84% 30.38 in 10.0 mi Calm Calm - N/A   Mostly Cloudy
6:55 AM 30.2 °F 25.3 °F 82% 30.38 in 10.0 mi Calm Calm - N/A   Mostly Cloudy
7:55 AM 30.6 °F 25.9 °F 83% 30.38 in 10.0 mi Calm Calm - N/A   Mostly Cloudy
8:55 AM 34.5 °F 28.4 °F 78% 30.38 in 10.0 mi Calm Calm - N/A   Mostly Cloudy
9:55 AM 39.2 °F 29.7 °F 69% 30.37 in 10.0 mi Calm Calm - N/A   Mostly Cloudy
10:55 AM 43.5 °F 32.7 °F 66% 30.37 in 10.0 mi Calm Calm - N/A   Mostly Cloudy
11:55 AM 50.2 °F 34.2 °F 54% 30.36 in 10.0 mi Calm Calm - N/A   Mostly Cloudy
12:55 PM 55.0 °F 35.2 °F 47% 30.33 in 10.0 mi Calm Calm - N/A   Scattered Clouds
1:55 PM 55.9 °F 34.9 °F 45% 30.30 in 10.0 mi Calm Calm - N/A   Scattered Clouds
2:55 PM 56.5 °F 34.3 °F 43% 30.28 in 10.0 mi Calm Calm - N/A   Mostly Cloudy
3:55 PM 58.1 °F 34.5 °F 41% 30.26 in 10.0 mi Calm Calm - N/A   Mostly Cloudy
4:55 PM 54.9 °F 34.0 °F 45% 30.26 in 10.0 mi SSE 3.5 mph - N/A   Mostly Cloudy
5:55 PM 49.1 °F 34.7 °F 58% 30.25 in 10.0 mi ESE 3.5 mph - N/A   Mostly Cloudy
6:55 PM 46.9 °F 33.6 °F 60% 30.26 in 10.0 mi Calm Calm - N/A   Overcast
7:55 PM 46.2 °F 35.8 °F 67% 30.25 in 10.0 mi Calm Calm - N/A   Overcast
8:55 PM 42.8 °F 37.0 °F 80% 30.25 in 10.0 mi Calm Calm - N/A   Overcast
9:55 PM 41.9 °F 37.0 °F 83% 30.24 in 10.0 mi Calm Calm - N/A   Mostly Cloudy
10:55 PM 42.8 °F 35.1 °F 74% 30.22 in 10.0 mi Calm Calm - N/A   Overcast
11:55 PM 43.2 °F 36.3 °F 77% 30.21 in 10.0 mi Calm Calm - N/A   Overcast